Location: Grums
(59.3529°N, 13.1129°E)
Time: 08:46:26
(UTC+02:00)

Nauka - Pass Details

Date: 28 September 2021
Orbit: 417 x 423 km, 51.6° (Epoch: 24 October)

Event Time Altitude Azimuth Distance (km) Brightness Sun altitude
Rises 19:23:36 0° 250° (WSW) 2,364 ? -5.2°
Reaches altitude 10° 19:25:58 10° 235° (SW) 1,501 ? -5.5°
Maximum altitude 19:28:39 22° 182° (S) 968 ? -5.9°
Drops below altitude 10° 19:31:20 10° 129° (SE) 1,503 ? -6.2°
Enters shadow 19:32:12 - 122° (ESE) 1,801 ? -6.3°
